Погода в Янишполе

Россия / Республика Карелия     62°06′53″N   34°16′16″E
В апреле 2022 года жителям России запретили посещать сайт meteo.paraplan.net по решению Генеральной прокуратуры. Аудитория сайта уменьшилась в 10 раз. Владельцы сайта не видят смысла в поддержке погодного сервера в таких условиях. Сайт будет закрыт в октябре.
темп.,
°C
ветер,
м/с
пор.,
м/с
влажн.,
%
обл.,
%
осадки,
мм/ч
давл.,
гПа
погр.,
м
5 октября, ср
ср500:00+9вюв3895100 0.0 1009275
03:00+8вюв269783 0.0 1009175
06:00+9юв269395 0.2 1009285
09:00+7ююв268686 0.2 1010372
12:00+9ю357553 0.0 1010791
15:00+8ююз3584100 0.1 1011634
18:00+7ююв2591100 0.1 1011260
21:00+7ю2792100 0.1 1011328
6 октября, чт
чт600:00+7ююз279497 0.0 1011314
03:00+7ю279591 0.0 1011306
06:00+7ю399087 0.0 1009411
09:00+8ю4138668 0.0 1007597
12:00+9ю51391100 0.2 1005692
15:00+9ююз51495100 0.3 1002851
18:00+11ююз51493100 0.1 999822
21:00+11зюз61489100 2.3 9971051
7 октября, пт
пт700:00+8зюз51480100 0.4 1000700
03:00+9зюз5138748 0.4 1001742
06:00+9зюз51281100 0.0 10021120
09:00+9з61284100 0.0 1004985
12:00+9зюз51182100 0.3 10061151
15:00+11з612735 0.8 10071452
18:00+9зюз41280100 0.1 1009658
21:00+8зюз41385100 0.1 1010560
8 октября, сб
сб800:00+9юз41389100 0.0 1009745
03:00+10юз51389100 0.4 1008967
06:00+11юз51390100 0.0 1007972
09:00+10юз61288100 0.0 1007926
12:00+10ююз61380100 0.0 1006962
15:00+11юз61373100 0.0 10041086
18:00+10ююз61375100 0.0 10031001
21:00+11юз61475100 0.0 10011219
9 октября, вс
вс900:00+10юз61385100 0.4 10001270
03:00+9юз4108755 0.5 1001695
06:00+9зюз51079100 0.0 1001886
09:00+8зюз3882100 0.2 10031077
12:00+10зюз4880100 0.3 10031064
15:00+11зюз49705 0.5 10041191
18:00+8зюз411780 0.1 1006723
21:00+7зюз412845 0.1 1007589